Regional Weather Roundup
Issued by NWS

Home | Current Version | Previous Version | Graphics & Text | Print | Product List | Glossary On
Versions: 1 2 3 4 5 6 7 8 9 10 11 12 13 14 15 16 17 18 19 20 21 22 23 24 25 26 27 28 29 30 31 32 33 34 35 36 37 38 39 40 41 42 43 44 45 46 47 48 49 50
000
ASUS43 KLMK 280010
RWRKY
NATIONAL WEATHER SERVICE LOUISVILLE KY
700 PM EST THU NOV 27 2014

NOTE "FAIR" INDICATES FEW OR NO CLOUDS BELOW 12,000 FEET
WITH NO SIGNIFICANT WEATHER AND/OR OBSTRUCTIONS TO VISIBILITY.

KYZ001>023-026-027-061>063-070>075-280100-
WESTERN AND SOUTH CENTRAL KENTUCKY

CITY           SKY/WX    TMP DP  RH WIND       PRES   REMARKS
PADUCAH        CLEAR     28  24  85 CALM      30.47R
HENDERSON      MOCLDY    30  21  69 NW6       30.47S WCI  24
OWENSBORO      CLOUDY    30  21  69 N7        30.47S WCI  23
HOPKINSVILLE   CLOUDY    31  23  72 NW3       30.46F
BOWLING GREEN  CLOUDY    31  21  66 NW3       30.47R
GLASGOW        CLOUDY    30  22  73 NW6       30.45R WCI  24
$$

KYZ024-025-028>034-038-045-046-053-280100-
NORTH CENTRAL KENTUCKY

CITY           SKY/WX    TMP DP  RH WIND       PRES   REMARKS
LOUISVILLE/SDF CLOUDY    30  21  69 W7        30.43S WCI  23
LOUISVILLE/LOU CLOUDY    30  20  66 W7        30.43R WCI  23
FORT KNOX      MOCLDY    27  21  80 W7        30.41S WCI  19
$$

KYZ035>037-039>044-047>052-055>060-089>105-280100-
NORTHEAST KENTUCKY

CITY           SKY/WX    TMP DP  RH WIND       PRES   REMARKS
LEXINGTON      CLOUDY    30  22  72 W16       30.37R WCI  19
COVINGTON      FLURRIES  30  22  72 W12       30.35R WCI  20
FRANKFORT      CLOUDY    31  21  66 W7        30.38R WCI  24
$$

KYZ054-064>069-076>088-106>120-280100-
SOUTHEAST KENTUCKY

CITY           SKY/WX    TMP DP  RH WIND       PRES   REMARKS
JACKSON        CLOUDY    30  22  72 SW3       30.33R
LONDON         CLOUDY    31  24  75 W6        30.37R WCI  25
SOMERSET       CLOUDY    30  23  74 NW9       30.42R WCI  22
MIDDLESBORO    NOT AVBL
MONTICELLO     CLOUDY    31  26  81 NW6       30.44R WCI  25
$$



USA.gov is the U.S. government's official web portal to all federal, state and local government web resources and services.